Terminal Aerodrome Forecast
Issued by NWS St Louis, MO

Home | Current Version | Previous Version | Text Only | Print | Product List | Glossary On
Versions: 1 2 3 4 5 6 7 8 9 10 11 12 13 14 15 16 17
000
FTUS43 KLSX 222300
TAFCOU
TAF
KCOU 222339Z 2300/2324 23008KT P6SM SCT150 BKN250
     FM230300 25006KT 5SM TSRA BR BKN040CB
     FM230500 33006KT P6SM SCT040 BKN120
     FM231000 02006KT P6SM BKN030
     FM231500 02010KT P6SM SCT040=

USA.gov is the U.S. government's official web portal to all federal, state and local government web resources and services.